sat.trackr.live / text

‹ back to catalog

STARLINK-2222

NORAD 48572 · 2021-041V

PAYLOAD ACTIVE UNKNOWN

§ Identity

Operator
Country
US
Launch date
2021-05-15
Launch site
AFETR
Launch vehicle
Mass (kg)
RCS (m²)

Purposes: comms

External: N2YO · Heavens-Above · Gunter

§ Orbital elements

Epoch: 2026-09-19T17:16:07.519872Z

Period
94.01 min
Inclination
53.1619°
Eccentricity
0.0001320
Mean motion
15.31716092 rev/d
Perigee alt
469.8 km
Apogee alt
471.6 km
Semi-major
6,848.8 km
B*
8.9572e-5
RAAN
325.9379°
Arg perigee
86.2688°
Mean anomaly
273.8464°
Rev number
29,468

§ Raw data

STARLINK-22221 48572U 21041V   26262.71953148  .00002417  00000+0  89572-4 0  99982 48572  53.1619 325.9379 0001320  86.2688 273.8464 15.31716092294683

JSON: /api/v1/satellites/48572 · /tle

For live sub-satellite position, see the globe view (requires WebGL).

§ Visibility from observer

Set your observer location to see the next 7 days of passes ≥ 10°. The values pass through the URL so the page stays shareable.

No JS? Fill the form by hand. The geolocation button needs JavaScript.